Flag for Finland Weather past 2 weeks in Kemi, Finland

Now
48 °F

Low clouds.


Feels Like: 43 °F
Forecast: 37 / 50 °F
Wind: 14 mph from South

Location: Kemi Airport

Current Time: Oct 2, 2014 at 8:14:14 AM

Latest Report: Oct 2, 2014 at 7:20 AM


Visibility: N/A

Pressure: 30.12 "Hg

Humidity: 94%

Dew point: 46 °F

Location of KemiLocation

Historic Weather in Kemi — Graph

°F

Kemi temperature yesterday

Maximum temperature yesterday: 50 °F (at 12:50 PM)
Minimum temperature yesterday: 23 °F (at 3:50 AM)
Average temperature yesterday: 39 °F

Past Weeks' High & Low Weather Summary

 TemperatureHumidityPressure
High59 °F (Sep 17, 1:50 PM)100% (Sep 17, 6:20 AM)30.42 "Hg (Sep 17, 6:20 AM)
Low23 °F (Sep 23, 2:50 AM)46% (Sep 22, 3:50 PM)29.06 "Hg (Sep 27, 12:20 AM)
Average45 °F83%29.78 "Hg
* Reported Sep 17 6:20 AM — Oct 2 6:50 AM, Kemi, Weather by CustomWeather, © 2014

Note: Actual official high and low records may vary slightly from our data, if they occured in-between our weather recording intervals... More about our weather records

Advertising

Kemi weather history for previous 24 hours

 ConditionsComfort  
Time TempWeatherWind HumidityBarometerVisibility
6:50 AM
Oct 2
48 °FPassing clouds.15 mph94%30.12 "HgN/A
6:20 AM48 °FLow clouds.15 mph94%30.12 "HgN/A
5:50 AM48 °FPassing clouds.14 mph94%30.15 "HgN/A
5:20 AM48 °FLow clouds.15 mph94%30.15 "HgN/A
4:50 AM48 °FPassing clouds.14 mph94%30.15 "HgN/A
4:20 AM48 °FPassing clouds.14 mph94%30.18 "HgN/A
3:50 AM48 °FPassing clouds.13 mph94%30.18 "HgN/A
3:20 AM48 °FPassing clouds.13 mph94%30.18 "HgN/A
2:50 AM48 °FPassing clouds.12 mph94%30.18 "HgN/A
2:20 AM48 °FPassing clouds.13 mph94%30.21 "HgN/A
1:50 AM48 °FOvercast.13 mph94%30.21 "HgN/A
1:20 AM48 °FOvercast.13 mph94%30.21 "HgN/A
12:50 AM48 °FOvercast.13 mph87%30.21 "HgN/A
12:20 AM48 °FOvercast.13 mph87%30.21 "HgN/A
11:50 PM
Oct 1
48 °FOvercast.13 mph87%30.21 "HgN/A
11:20 PM48 °FOvercast.13 mph87%30.24 "HgN/A
10:50 PM48 °FOvercast.12 mph87%30.24 "HgN/A
10:20 PM48 °FPassing clouds.12 mph87%30.24 "HgN/A
9:50 PM46 °FPassing clouds.8 mph93%30.24 "HgN/A
9:20 PM46 °FPassing clouds.10 mph87%30.27 "HgN/A
8:50 PM46 °FOvercast.10 mph87%30.27 "HgN/A
8:20 PM46 °FOvercast.12 mph87%30.27 "HgN/A
7:50 PM46 °FPassing clouds.12 mph87%30.30 "HgN/A
7:20 PM46 °FPartly sunny.12 mph82%30.30 "HgN/A
7:04 PM46 °FPartly sunny.12 mph82%30.30 "HgN/A
6:27 PM46 °FPartly sunny.13 mph82%30.30 "HgN/A
5:50 PM46 °FPartly sunny.12 mph82%30.30 "HgN/A
5:20 PM46 °FPassing clouds.13 mph76%30.33 "HgN/A
4:50 PM48 °FPassing clouds.14 mph66%30.33 "HgN/A
4:20 PM48 °FPassing clouds.15 mph71%30.33 "HgN/A
3:50 PM48 °FPassing clouds.14 mph71%30.33 "HgN/A
3:20 PM48 °FPassing clouds.14 mph76%30.36 "HgN/A
2:50 PM48 °FPassing clouds.15 mph76%30.36 "HgN/A
2:20 PM48 °FPassing clouds.16 mph76%30.36 "HgN/A
1:50 PM50 °FPassing clouds.14 mph76%30.36 "HgN/A
1:20 PM50 °FPassing clouds.15 mph76%30.36 "HgN/A
12:50 PM50 °FPassing clouds.14 mph76%30.36 "HgN/A
12:20 PM48 °FScattered clouds.13 mph82%30.36 "HgN/A
11:50 AM48 °FScattered clouds.13 mph76%30.39 "HgN/A
11:20 AM48 °FPartly sunny.13 mph76%30.39 "HgN/A
10:50 AM48 °FScattered clouds.12 mph76%30.39 "HgN/A
10:20 AM37 °FScattered clouds.2 mph93%30.39 "HgN/A
9:50 AM37 °FScattered clouds.2 mph87%30.39 "HgN/A
9:27 AM36 °FPassing clouds.3 mph93%30.39 "HgN/A
8:50 AM32 °FSunny.1 mph93%30.39 "Hg10 mi
8:20 AM32 °FClear.3 mph93%30.39 "Hg10 mi
Weather by CustomWeather, © 2014

See weather overviewHow to use our weather pages